Weather History for Houghton, MI

Change the Weather History Date:

Wednesday, October 30, 2013

  Actual Average Record
Temperature  
Mean Temperature 39 °F -  
Max Temperature 46 °F 47 °F 68 °F (1956)
Min Temperature 33 °F 32 °F 19 °F (1966)
Degree Days  
Heating Degree Days 26    
Moisture  
Dew Point 36 °F    
Average Humidity 90    
Maximum Humidity 100    
Minimum Humidity 76    
Precipitation  
Precipitation 0.05 in - - ()
Sea Level Pressure  
Sea Level Pressure 29.99 in    
Wind  
Wind Speed 3 mph (ESE)    
Max Wind Speed 8 mph    
Max Gust Speed -    
Visibility 6 miles    
Events Fog , Rain    
Averages and records for this station are not official NWS values.
T = Trace of Precipitation, MM = Missing Value Source: NWS Daily Summary

Daily Weather History Graph

Daily Weather History Graph

Search for Another Location

Airport:

Trip Planner

Search our weather history database for the weather conditions in past years. The results will help you decide how hot, cold, wet, or windy it might be!

Date:

Astronomy

Oct. 30, 2013 Rise Set
Actual Time 8:34 AM EDT 6:40 PM EDT
Civil Twilight 8:02 AM EDT 7:11 PM EDT
Nautical Twilight 7:26 AM EDT 7:47 PM EDT
Astronomical Twilight 6:51 AM EDT 8:23 PM EDT
Moon 4:07 AM EDT (10/30) 4:38 PM EDT (10/30)
Length of Visible Light 11h 09m
Length of Day
10h 05m
Waning Crescent, 17% of the Moon is Illuminated
Oct 30
Waning Crescent
Nov 3
New
Nov 10
First Quarter
Nov 17
Full
Nov 25
Last Quarter

Hourly Weather History & Observations

Time (EDT) Temp. Windchill Dew Point Humidity Pressure Visibility Wind Dir Wind Speed Gust Speed Precip Events Conditions
12:25 AM 33.8 °F 30.8 °F 30.2 °F 87% 30.15 in 10.0 mi SSW 3.5 mph - N/A   Overcast
12:53 AM 33.1 °F - 30.0 °F 89% 30.19 in 10.0 mi Calm Calm - N/A   Overcast
1:39 AM 33.8 °F - 30.2 °F 87% 30.14 in 10.0 mi Calm Calm - N/A   Overcast
1:53 AM 34.0 °F - 30.0 °F 85% 30.18 in 10.0 mi Calm Calm - N/A   Overcast
2:44 AM 33.8 °F - 30.2 °F 87% 30.13 in 10.0 mi Calm Calm - N/A   Overcast
2:53 AM 34.0 °F - 30.9 °F 89% 30.17 in 10.0 mi Calm Calm - N/A   Overcast
3:44 AM 33.8 °F - 30.2 °F 87% 30.12 in 10.0 mi Calm Calm - N/A   Overcast
3:53 AM 35.1 °F - 30.9 °F 85% 30.16 in 10.0 mi Calm Calm - N/A   Overcast
4:25 AM 33.8 °F - 30.2 °F 87% 30.12 in 10.0 mi Calm Calm - N/A   Overcast
4:53 AM 35.1 °F - 30.9 °F 85% 30.15 in 10.0 mi Calm Calm - N/A   Overcast
5:53 AM 35.1 °F 32.2 °F 32.0 °F 89% 30.14 in 10.0 mi South 3.5 mph - N/A   Overcast
6:06 AM 33.8 °F - 32.0 °F 93% 30.10 in 10.0 mi Calm Calm - N/A   Overcast
6:26 AM 35.6 °F - 32.0 °F 87% 30.10 in 10.0 mi Calm Calm - N/A   Overcast
6:39 AM 35.6 °F - 32.0 °F 87% 30.10 in 10.0 mi Calm Calm - N/A   Overcast
6:53 AM 35.1 °F - 32.0 °F 89% 30.14 in 10.0 mi Calm Calm - N/A   Overcast
7:04 AM 35.6 °F - 32.0 °F 87% 30.10 in 10.0 mi Calm Calm - N/A   Overcast
7:38 AM 35.6 °F - 32.0 °F 87% 30.09 in 10.0 mi Calm Calm - N/A   Overcast
7:53 AM 35.1 °F - 32.0 °F 89% 30.13 in 10.0 mi Calm Calm - N/A   Overcast
8:10 AM 35.6 °F - 32.0 °F 87% 30.08 in 10.0 mi Calm Calm - N/A   Overcast
8:53 AM 35.1 °F - 32.0 °F 89% 30.12 in 10.0 mi Calm Calm - N/A   Overcast
9:20 AM 35.6 °F 32.8 °F 33.8 °F 93% 30.08 in 6.0 mi ESE 3.5 mph - N/A   Overcast
9:33 AM 35.6 °F 32.8 °F 33.8 °F 93% 30.08 in 6.0 mi ESE 3.5 mph - N/A   Overcast
9:50 AM 35.6 °F 32.8 °F 33.8 °F 93% 30.08 in 9.0 mi East 3.5 mph - N/A   Overcast
9:53 AM 36.0 °F 33.3 °F 33.1 °F 89% 30.12 in 9.0 mi East 3.5 mph - N/A   Overcast
10:30 AM 35.6 °F 32.8 °F 33.8 °F 93% 30.07 in 10.0 mi ESE 3.5 mph - N/A   Overcast
10:43 AM 35.6 °F - 33.8 °F 93% 30.07 in 10.0 mi Calm Calm - N/A   Overcast
10:53 AM 36.0 °F 31.1 °F 33.1 °F 89% 30.10 in 10.0 mi SE 5.8 mph - N/A   Overcast
11:02 AM 37.4 °F 34.9 °F 33.8 °F 87% 30.06 in 10.0 mi ESE 3.5 mph - N/A   Overcast
11:53 AM 39.0 °F 34.8 °F 35.1 °F 86% 30.09 in 10.0 mi SE 5.8 mph - N/A   Overcast
12:53 PM 39.0 °F 34.0 °F 35.1 °F 86% 30.08 in 10.0 mi ESE 6.9 mph - N/A   Overcast
12:58 PM 39.2 °F 33.6 °F 35.6 °F 87% 30.04 in 10.0 mi SE 8.1 mph - N/A   Overcast
1:53 PM 41.0 °F 35.8 °F 35.1 °F 79% 30.02 in 10.0 mi ESE 8.1 mph - N/A   Overcast
2:53 PM 42.1 °F 37.1 °F 36.0 °F 79% 30.00 in 10.0 mi SE 8.1 mph - N/A   Overcast
3:06 PM 42.8 °F 38.0 °F 35.6 °F 76% 29.96 in 10.0 mi SE 8.1 mph - N/A   Overcast
3:36 PM 41.0 °F 37.1 °F 37.4 °F 87% 29.95 in 1.8 mi SE 5.8 mph - N/A   Overcast
3:53 PM 41.0 °F 36.4 °F 37.9 °F 89% 29.98 in 1.2 mi ESE 6.9 mph - 0.01 in Rain Light Rain
4:14 PM 39.2 °F 35.0 °F 37.4 °F 93% 29.93 in 1.0 mi ESE 5.8 mph - 0.00 in   Overcast
4:36 PM 39.2 °F 35.0 °F 37.4 °F 93% 29.92 in 0.8 mi ESE 5.8 mph - 0.02 in Rain Light Rain
4:53 PM 39.9 °F 35.1 °F 37.9 °F 93% 29.94 in 0.5 mi East 6.9 mph - 0.03 in Fog Fog
5:01 PM 39.2 °F 34.2 °F 37.4 °F 93% 29.90 in 0.2 mi East 6.9 mph - N/A Fog Fog
5:53 PM 41.0 °F 36.4 °F 39.0 °F 93% 29.91 in 0.2 mi ESE 6.9 mph - 0.00 in Fog Fog
6:34 PM 41.0 °F 38.0 °F 39.2 °F 93% 29.86 in 0.2 mi East 4.6 mph - N/A Fog Fog
6:53 PM 42.1 °F 39.2 °F 39.9 °F 92% 29.88 in 0.2 mi East 4.6 mph - N/A Fog Fog
7:04 PM 42.8 °F 38.6 °F 39.2 °F 87% 29.84 in 0.5 mi East 6.9 mph - N/A Fog Fog
7:20 PM 42.8 °F 38.6 °F 41.0 °F 93% 29.83 in 0.2 mi East 6.9 mph - N/A Fog Fog
7:27 PM 42.8 °F 38.6 °F 41.0 °F 93% 29.83 in 0.5 mi East 6.9 mph - N/A Fog Fog
7:44 PM 42.8 °F 38.0 °F 41.0 °F 93% 29.83 in 0.2 mi East 8.1 mph - N/A Fog Fog
7:53 PM 43.0 °F 38.8 °F 41.0 °F 93% 29.86 in 0.2 mi East 6.9 mph - N/A Fog Fog
8:00 PM 42.8 °F 38.0 °F 41.0 °F 93% 29.82 in 0.5 mi ESE 8.1 mph - N/A Fog Fog
8:12 PM 42.8 °F 38.6 °F 41.0 °F 93% 29.82 in 0.2 mi East 6.9 mph - N/A Fog Fog
8:20 PM 42.8 °F 38.0 °F 42.8 °F 100% 29.82 in 0.5 mi ESE 8.1 mph - 0.00 in Fog , Rain Light Rain
8:34 PM 44.6 °F 40.7 °F 42.8 °F 93% 29.81 in 0.5 mi ESE 6.9 mph - 0.01 in Fog , Rain Light Rain
8:53 PM 44.1 °F 40.1 °F 42.1 °F 93% 29.83 in 1.2 mi ESE 6.9 mph - 0.01 in Rain Light Rain
9:03 PM 44.6 °F 41.4 °F 42.8 °F 93% 29.80 in 0.5 mi ESE 5.8 mph - 0.00 in Fog , Rain Light Rain
9:53 PM 45.0 °F 41.8 °F 43.0 °F 93% 29.80 in 0.8 mi East 5.8 mph - 0.00 in   Overcast
10:42 PM 44.6 °F - 42.8 °F 93% 29.76 in 0.2 mi Calm Calm - N/A Fog Fog
10:53 PM 45.0 °F 42.6 °F 43.0 °F 93% 29.78 in 0.2 mi SE 4.6 mph - N/A Fog Fog
11:02 PM 44.6 °F 42.2 °F 42.8 °F 93% 29.75 in 0.8 mi SE 4.6 mph - N/A   Overcast
11:43 PM 44.6 °F 41.4 °F 42.8 °F 93% 29.73 in 0.2 mi SE 5.8 mph - N/A Fog Fog
11:51 PM 44.6 °F 41.4 °F 42.8 °F 93% 29.73 in 0.8 mi SE 5.8 mph - N/A   Overcast
11:53 PM 45.0 °F 42.6 °F 43.0 °F 93% 29.75 in 0.8 mi SE 4.6 mph - N/A   Overcast